When you browse on this site, cookies collect data to enhance your experience and personalize the content and advertising you see.
Visit our Privacy Policy to learn more. By continuing to use the site, you agree to this use of cookies and data.
  • In United Kingdom
  • List of Countries
  • For 7 days
  • Water Temperature
  • Satellite Maps
  • Weather Map
  • Weather Widgets
  • user-avatar
    Login

    Hourly Weather Mottola

    Today, 24 March, Sunday

    Time Temperature Precipitation Wind Pressure Humidity
    00:00 +9°C° 0 mm 5 mps 741 mmHg 67%
    01:00 +10°C° 0 mm 4 mps 741 mmHg 64%
    02:00 +9°C° 0 mm 5 mps 740 mmHg 63%
    03:00 +8°C° 0 mm 5 mps 740 mmHg 62%
    04:00 +8°C° 0 mm 5 mps 740 mmHg 61%
    05:00 +9°C° 0 mm 5 mps 740 mmHg 62%
    06:00 +9°C° 0 mm 5 mps 740 mmHg 63%
    07:00 +9°C° 0 mm 5 mps 740 mmHg 64%
    08:00 +12°C° 0 mm 5 mps 741 mmHg 60%
    09:00 +15°C° 0 mm 5 mps 741 mmHg 56%
    10:00 +17°C° 0 mm 5 mps 741 mmHg 53%
    11:00 +19°C° 0 mm 4 mps 742 mmHg 50%
    12:00 +19°C° 0 mm 4 mps 742 mmHg 46%
    13:00 +20°C° 0 mm 3 mps 742 mmHg 43%
    14:00 +20°C° 0 mm 3 mps 741 mmHg 44%
    15:00 +20°C° 0 mm 3 mps 741 mmHg 45%
    16:00 +20°C° 0 mm 3 mps 741 mmHg 46%
    17:00 +17°C° 0 mm 2 mps 741 mmHg 53%
    18:00 +15°C° 0 mm 2 mps 740 mmHg 59%
    19:00 +13°C° 0 mm 1 mps 740 mmHg 66%
    20:00 +13°C° 0 mm 1 mps 740 mmHg 66%
    21:00 +13°C° 0 mm 1 mps 740 mmHg 66%
    22:00 +12°C° 0 mm 1 mps 740 mmHg 66%
    23:00 +12°C° 0 mm 1 mps 740 mmHg 66%

    Tomorrow, 25 March, Monday

    Time Temperature Precipitation Wind Pressure Humidity
    00:00 +12°C° 0 mm 1 mps 740 mmHg 66%
    01:00 +12°C° 0 mm 1 mps 740 mmHg 66%
    02:00 +11°C° 0 mm 1 mps 739 mmHg 67%
    03:00 +11°C° 0 mm 1 mps 739 mmHg 68%
    04:00 +11°C° 0 mm 1 mps 738 mmHg 70%
    05:00 +12°C° 0 mm 1 mps 738 mmHg 69%
    06:00 +12°C° 0 mm 1 mps 738 mmHg 69%
    07:00 +13°C° 0 mm 1 mps 738 mmHg 68%
    08:00 +15°C° 0 mm 1 mps 738 mmHg 62%
    09:00 +18°C° 0 mm 1 mps 738 mmHg 56%
    10:00 +19°C° 0 mm 1 mps 738 mmHg 49%
    11:00 +20°C° 0 mm 1 mps 738 mmHg 46%
    12:00 +20°C° 0 mm 2 mps 738 mmHg 43%
    13:00 +21°C° 0 mm 2 mps 738 mmHg 39%
    14:00 +20°C° 0 mm 2 mps 737 mmHg 42%
    15:00 +20°C° 0 mm 3 mps 736 mmHg 44%
    16:00 +19°C° 0 mm 3 mps 736 mmHg 46%
    17:00 +17°C° 0 mm 2 mps 736 mmHg 54%
    18:00 +16°C° 0 mm 2 mps 735 mmHg 62%
    19:00 +14°C° 0 mm 1 mps 735 mmHg 70%
    20:00 +13°C° 0 mm 1 mps 735 mmHg 72%
    21:00 +13°C° 0 mm 1 mps 734 mmHg 75%
    22:00 +12°C° 0 mm 1 mps 734 mmHg 77%
    23:00 +12°C° 0.3 mm 1 mps 734 mmHg 76%

    Day after tomorrow, 26 March, Tuesday

    Time Temperature Precipitation Wind Pressure Humidity
    00:00 +12°C° 0.3 mm 1 mps 734 mmHg 74%
    01:00 +12°C° 0.3 mm 1 mps 733 mmHg 73%
    02:00 +12°C° 0.2 mm 1 mps 733 mmHg 73%
    03:00 +12°C° 0.2 mm 1 mps 733 mmHg 73%
    04:00 +12°C° 0.2 mm 1 mps 733 mmHg 72%
    05:00 +12°C° 0.1 mm 1 mps 733 mmHg 73%
    06:00 +12°C° 0.1 mm 1 mps 733 mmHg 75%
    07:00 +12°C° 0.1 mm 1 mps 733 mmHg 76%
    08:00 +14°C° 0 mm 1 mps 734 mmHg 70%
    09:00 +16°C° 0 mm 2 mps 734 mmHg 64%
    10:00 +17°C° 0 mm 2 mps 735 mmHg 58%
    11:00 +18°C° 0.3 mm 2 mps 735 mmHg 57%
    12:00 +18°C° 0.3 mm 3 mps 735 mmHg 55%
    13:00 +18°C° 0.3 mm 4 mps 736 mmHg 54%
    14:00 +16°C° 0.3 mm 5 mps 736 mmHg 58%
    15:00 +15°C° 0.3 mm 5 mps 736 mmHg 62%
    16:00 +14°C° 0.3 mm 6 mps 736 mmHg 65%
    17:00 +13°C° 0 mm 6 mps 736 mmHg 69%
    18:00 +11°C° 0 mm 6 mps 737 mmHg 72%
    19:00 +10°C° 0 mm 6 mps 737 mmHg 76%
    20:00 +9°C° 0.1 mm 5 mps 737 mmHg 78%
    21:00 +8°C° 0.1 mm 5 mps 738 mmHg 79%
    22:00 +8°C° 0.1 mm 4 mps 738 mmHg 81%
    23:00 +8°C° 0.1 mm 4 mps 738 mmHg 81%

    27 March, Wednesday

    Time Temperature Precipitation Wind Pressure Humidity
    00:00 +8°C° 0.1 mm 4 mps 738 mmHg 81%
    01:00 +8°C° 0.1 mm 4 mps 738 mmHg 81%
    02:00 +8°C° 0 mm 4 mps 738 mmHg 83%
    03:00 +8°C° 0 mm 4 mps 738 mmHg 85%
    04:00 +8°C° 0 mm 4 mps 738 mmHg 87%
    05:00 +8°C° 0.2 mm 4 mps 738 mmHg 85%
    06:00 +9°C° 0.2 mm 3 mps 738 mmHg 84%
    07:00 +10°C° 0.2 mm 3 mps 739 mmHg 82%
    08:00 +10°C° 0.2 mm 3 mps 739 mmHg 79%
    09:00 +11°C° 0.2 mm 3 mps 739 mmHg 76%
    10:00 +12°C° 0.2 mm 4 mps 740 mmHg 73%
    11:00 +12°C° 0.6 mm 4 mps 740 mmHg 73%
    12:00 +12°C° 0.6 mm 5 mps 740 mmHg 73%
    13:00 +12°C° 0.6 mm 5 mps 740 mmHg 72%
    14:00 +12°C° 1.2 mm 5 mps 740 mmHg 75%
    15:00 +10°C° 1.2 mm 6 mps 739 mmHg 78%
    16:00 +9°C° 1.2 mm 6 mps 739 mmHg 81%
    17:00 +9°C° 1.4 mm 6 mps 739 mmHg 84%
    18:00 +9°C° 1.4 mm 6 mps 739 mmHg 86%
    19:00 +8°C° 1.4 mm 6 mps 739 mmHg 88%
    20:00 +8°C° 2.3 mm 6 mps 740 mmHg 89%
    21:00 +8°C° 2.3 mm 6 mps 740 mmHg 89%
    22:00 +8°C° 2.3 mm 6 mps 740 mmHg 90%
    23:00 +8°C° 1.1 mm 6 mps 740 mmHg 88%

    28 March, Thursday

    Time Temperature Precipitation Wind Pressure Humidity
    00:00 +8°C° 1.1 mm 6 mps 740 mmHg 86%
    01:00 +8°C° 1.1 mm 6 mps 740 mmHg 84%
    02:00 +8°C° 0.1 mm 5 mps 740 mmHg 84%
    03:00 +8°C° 0.1 mm 5 mps 740 mmHg 84%
    04:00 +8°C° 0.1 mm 4 mps 739 mmHg 83%
    05:00 +8°C° 0.3 mm 4 mps 740 mmHg 83%
    06:00 +10°C° 0.3 mm 4 mps 740 mmHg 83%
    07:00 +10°C° 0.3 mm 4 mps 740 mmHg 83%
    08:00 +9°C° 0.5 mm 5 mps 740 mmHg 81%
    09:00 +9°C° 0.5 mm 5 mps 741 mmHg 78%
    10:00 +10°C° 0.5 mm 6 mps 741 mmHg 75%
    11:00 +9°C° 1.3 mm 5 mps 741 mmHg 76%
    12:00 +9°C° 1.3 mm 5 mps 741 mmHg 78%
    13:00 +9°C° 1.3 mm 5 mps 741 mmHg 80%
    14:00 +9°C° 0.7 mm 5 mps 741 mmHg 79%
    15:00 +10°C° 0.7 mm 4 mps 741 mmHg 79%
    16:00 +10°C° 0.7 mm 4 mps 741 mmHg 79%
    17:00 +10°C° 0.3 mm 4 mps 741 mmHg 79%
    18:00 +8°C° 0.3 mm 4 mps 741 mmHg 80%
    19:00 +8°C° 0.3 mm 4 mps 741 mmHg 81%
    20:00 +8°C° 0.1 mm 5 mps 742 mmHg 80%
    21:00 +8°C° 0.1 mm 5 mps 742 mmHg 79%
    22:00 +8°C° 0.1 mm 6 mps 742 mmHg 78%
    23:00 +8°C° 0 mm 6 mps 742 mmHg 79%

    29 March, Friday

    Time Temperature Precipitation Wind Pressure Humidity
    00:00 +7°C° 0 mm 6 mps 742 mmHg 79%
    01:00 +7°C° 0 mm 6 mps 742 mmHg 80%
    02:00 +7°C° 0 mm 6 mps 742 mmHg 80%
    03:00 +7°C° 0 mm 6 mps 742 mmHg 80%
    04:00 +7°C° 0 mm 6 mps 742 mmHg 80%
    05:00 +7°C° 0 mm 5 mps 742 mmHg 80%
    06:00 +7°C° 0 mm 5 mps 742 mmHg 81%
    07:00 +7°C° 0 mm 5 mps 742 mmHg 82%
    08:00 +9°C° 0 mm 5 mps 742 mmHg 75%
    09:00 +12°C° 0 mm 5 mps 743 mmHg 67%
    10:00 +13°C° 0 mm 5 mps 743 mmHg 60%
    11:00 +14°C° 0.1 mm 5 mps 743 mmHg 57%
    12:00 +14°C° 0.1 mm 5 mps 743 mmHg 54%
    13:00 +15°C° 0.1 mm 5 mps 743 mmHg 50%
    14:00 +14°C° 0.1 mm 5 mps 742 mmHg 51%
    15:00 +14°C° 0.1 mm 5 mps 742 mmHg 51%
    16:00 +14°C° 0.1 mm 5 mps 742 mmHg 52%
    17:00 +12°C° 0 mm 4 mps 742 mmHg 57%
    18:00 +11°C° 0 mm 4 mps 742 mmHg 63%
    19:00 +8°C° 0 mm 4 mps 741 mmHg 68%
    20:00 +8°C° 0 mm 4 mps 742 mmHg 68%
    21:00 +8°C° 0 mm 4 mps 742 mmHg 68%
    22:00 +7°C° 0 mm 4 mps 742 mmHg 68%
    23:00 +7°C° 0 mm 5 mps 742 mmHg 71%
    Show more